Simultaneous Nadir Overpasses (SNOs) Predictions

Prediction of SNOs between NOAA-19 and TERRA Satellite Orbit:

Table of predicted SNOs for the next 14.0 days since TLE Epoch: 3/9/2019
Index Date (NOAA-19) Time (NOAA-19) Lat,Lon (NOAA-19) SZA (NOAA-19 ) Date (TERRA) Time (TERRA) Lat,Lon (TERRA) SZA (TERRA ) Distance(km) Time Diff (sec)
1 03/09/2019 12:59:25 78.10, 5.76 83.10 03/09/2019 12:59:32 78.10, 5.64 83.10 2.88 7
2 03/11/2019 18:32:57 -78.15, 102.21 97.74 03/11/2019 18:33:16 -78.11, 102.23 97.77 4.14 19
3 03/11/2019 19:23:54 78.11, -90.31 82.24 03/11/2019 19:22:42 78.09, -90.20 82.20 3.23 72
4 03/14/2019 00:06:23 78.16,-161.11 81.41 03/14/2019 00:06:56 78.16,-160.96 81.43 3.37 33
5 03/14/2019 00:57:24 -78.10, 6.47 98.64 03/14/2019 00:56:25 -78.09, 6.36 98.67 2.75 59
6 03/16/2019 05:39:53 -78.16, -64.44 99.45 03/16/2019 05:40:38 -78.15, -64.43 99.45 1.36 45
7 03/16/2019 06:30:51 78.13, 103.03 80.52 03/16/2019 06:30:04 78.13, 103.11 80.51 1.89 47
8 03/18/2019 11:13:20 78.17, 32.22 79.70 03/18/2019 11:14:16 78.17, 32.28 79.71 1.41 56
9 03/18/2019 12:04:20 -78.12,-160.21 100.35 03/18/2019 12:03:44 -78.15,-160.19 100.33 3.80 36
10 03/20/2019 16:46:49 -78.19, 128.85 101.17 03/20/2019 16:47:55 -78.19, 128.95 101.14 2.21 66
11 03/20/2019 17:37:48 78.15, -63.67 78.80 03/20/2019 17:37:21 78.17, -63.54 78.82 3.51 27
12 03/22/2019 22:20:19 78.27,-134.96 78.02 03/22/2019 22:21:31 78.19,-134.45 78.00 14.42 72




NCC Satellite Simultaneous Nadir Overpasses (SNOs) Prediction Service
